Wind_Speed
5 6 6 6 6 6 6 6 6 6 6 6 6 6 5 6 6 6 5 5 5 5 6 6 6 6 6 6 6 6 6 7 7 8 8 9 10 10 10 10 10 10 11
5 6 6 6 6 6 7 6 6 6 6 6 6 6 6 6 5 6 6 5 6 6 6 6 6 6 7 7 7 6 6 7 7 7 8 8 9 10 10 11 11 10 11
6 7 7 6 6 6 7 7 7 6 7 7 6 6 5 6 6 6 7 7 7 7 7 7 7 7 6 6 6 6 6 7 7 7 7 8 9 10 10 11 11 11 11
7 7 7 7 7 7 6 6 7 7 8 7 6 6 6 6 6 6 7 7 7 7 7 7 7 6 6 6 6 6 6 7 7 7 7 8 8 9 10 11 12 12 12
7 7 7 7 6 7 7 7 7 7 7 7 6 6 6 6 6 6 6 7 7 7 8 7 7 7 7 8 8 7 8 7 7 7 7 9 9 10 10 11 11 12 12
8 8 8 7 7 7 7 7 7 7 7 7 7 6 6 7 7 7 7 7 8 8 8 7 8 8 8 8 8 8 8 8 8 8 8 9 9 10 10 11 11 11 11
9 9 9 8 8 8 8 8 8 8 8 8 8 7 7 8 8 8 8 9 9 8 8 8 8 7 7 8 8 8 8 8 9 8 9 9 10 10 10 10 11 11 12
11 10 10 9 9 9 9 9 9 9 9 9 9 9 8 8 8 9 9 9 9 8 8 7 7 7 7 8 8 9 8 9 9 9 9 9 10 10 10 10 11 12 13
12 11 10 10 10 10 10 10 10 10 10 10 9 9 9 9 9 9 9 9 9 8 8 7 6 7 7 7 7 8 8 9 9 9 10 10 10 10 10 11 12 12 12
12 12 11 11 10 10 10 10 10 10 10 10 10 9 9 10 10 9 10 9 8 8 8 7 7 7 7 7 7 8 8 9 9 9 10 10 10 11 11 11 12 12 12
12 12 12 12 11 10 10 10 10 10 10 10 11 11 10 11 11 10 9 9 9 8 8 7 8 8 8 8 8 8 9 10 10 10 10 10 11 11 12 12 12 12 13
12 12 12 11 11 11 10 10 10 10 10 11 11 11 11 11 11 10 10 9 9 9 8 8 8 9 9 9 10 10 10 11 11 11 11 11 11 12 12 13 13 13 14
12 12 12 12 11 11 11 11 11 11 11 12 12 12 12 11 11 11 10 9 10 9 9 9 9 10 10 10 11 11 11 12 12 12 12 12 13 13 14 14 14 14 14
13 13 13 12 12 12 13 13 13 13 13 13 13 13 12 12 11 10 10 10 10 10 10 10 10 11 12 12 12 11 12 13 13 14 14 14 14 14 14 15 15 15 16
14 14 13 12 12 13 14 14 14 14 13 14 14 14 13 13 12 11 11 11 12 12 12 12 12 12 12 12 13 12 13 14 14 14 15 15 15 15 15 16 17 17 18
16 16 15 13 13 14 15 15 15 14 14 14 13 13 13 12 11 12 13 13 13 13 14 14 13 12 13 14 14 14 15 15 15 15 15 16 16 16 17 18 18 19 19
17 16 15 15 15 15 15 15 14 14 14 14 13 13 13 13 13 13 13 14 14 14 14 14 14 14 14 14 15 15 15 16 17 17 17 18 18 18 19 20 20 20 21
17 17 17 16 17 17 16 16 16 15 14 14 14 14 15 14 15 15 14 15 15 15 16 16 17 16 15 15 16 17 17 17 18 18 19 20 20 20 20 21 21 22 22
18 18 18 18 18 18 18 17 17 16 16 16 16 16 15 15 15 16 16 16 17 17 18 18 18 18 17 17 17 18 18 18 19 20 21 21 22 22 22 23 23 24 24
20 20 20 20 20 19 20 19 19 18 17 17 17 17 16 16 16 17 17 18 18 19 19 19 19 19 19 19 19 19 19 20 21 22 23 23 23 24 25 25 25 25 25
22 22 22 22 22 21 21 21 21 20 20 19 19 18 17 18 19 19 20 20 20 20 21 21 20 20 21 21 22 22 22 22 23 23 24 24 25 25 25 26 26 26 27
23 24 24 24 23 23 22 22 22 22 22 21 21 21 21 20 20 21 22 22 22 22 22 22 23 23 23 23 24 24 25 25 25 25 26 27 27 26 27 27 27 28 28
25 25 25 25 24 24 24 23 23 23 23 23 23 23 23 23 23 23 23 23 24 25 25 25 25 24 24 25 26 26 26 26 27 27 27 27 28 28 28 28 29 29 29
26 25 25 25 25 23 23 23 23 24 24 24 24 24 24 24 24 25 25 25 25 26 27 26 26 27 27 27 28 28 29 28 28 29 29 29 30 30 30 30 30 30 30
26 26 25 25 24 23 23 23 24 24 25 25 25 26 26 26 26 27 27 27 27 26 26 27 28 29 29 30 30 30 30 30 29 29 30 30 30 31 31 31 31 31 31
27 25 26 25 24 24 24 24 24 25 25 25 26 26 26 26 27 27 27 27 27 27 28 29 29 30 30 30 31 31 31 31 31 30 30 32 32 32 32 32 32 32 32
Wind_Direction
328 323 320 321 320 318 316 309 301 304 310 299 284 277 278 293 291 287 286 283 282 287 291 283 277 275 271 272 269 274 278 278 273 269 263 259 256 261 265 265 267 266 268
324 322 323 323 321 318 317 312 310 309 309 307 297 288 284 292 288 279 284 286 282 279 283 283 279 283 282 282 279 279 282 281 277 273 271 268 268 266 264 269 267 272 274
323 323 320 321 322 322 318 310 306 306 308 306 301 300 297 294 287 279 281 280 278 277 281 283 283 285 283 284 281 281 281 280 284 287 283 274 272 275 270 272 272 273 275
317 318 318 319 319 322 321 317 312 303 302 299 296 299 302 301 298 288 285 288 283 280 279 280 276 278 277 277 276 278 282 286 286 291 289 285 283 284 279 276 277 276 275
309 313 320 320 321 323 318 315 314 307 307 300 293 298 299 298 299 291 286 289 291 287 286 278 272 274 280 279 278 277 279 283 287 292 295 289 284 287 288 283 282 282 279
305 305 307 314 316 316 312 312 312 310 308 305 300 298 294 292 288 284 286 288 286 286 290 284 270 271 276 276 277 275 276 277 281 284 292 299 296 291 288 288 288 288 287
300 301 302 303 306 310 305 302 307 307 305 302 299 292 292 290 286 282 283 286 285 286 288 288 279 274 278 279 277 273 275 280 281 283 287 292 294 297 297 295 291 289 290
293 295 296 298 297 299 301 300 299 301 301 301 298 296 292 289 294 291 288 289 291 292 292 290 285 284 283 281 279 280 277 282 281 284 288 290 291 294 295 297 299 292 288
293 293 292 293 294 294 297 300 297 298 300 298 296 295 289 283 294 293 291 290 290 292 297 291 284 288 287 285 284 287 285 286 286 285 288 290 291 294 293 295 296 295 293
294 294 293 292 293 294 299 301 299 298 300 300 299 297 294 294 297 297 295 290 290 295 296 292 288 289 287 286 290 288 289 288 286 287 287 290 292 294 296 299 298 295 292
288 290 294 295 293 296 299 305 306 304 301 302 303 299 294 297 297 292 294 288 288 292 297 295 290 290 288 284 285 287 289 287 287 285 286 288 291 296 298 300 302 300 295
286 288 289 291 292 295 297 300 302 303 306 306 304 300 294 291 290 287 292 290 289 289 289 291 289 289 287 282 283 283 284 284 286 284 284 289 293 297 298 297 299 299 298
287 287 287 288 291 295 294 295 296 298 302 305 305 302 297 291 285 283 287 289 287 287 287 287 287 287 286 285 283 283 284 286 286 285 287 290 292 293 296 297 297 297 296
283 288 290 288 289 291 292 294 294 292 294 300 302 300 297 291 287 288 284 284 286 285 284 282 282 286 285 288 290 289 287 288 287 284 285 288 291 292 293 295 296 295 294
284 286 290 290 291 293 294 294 294 291 293 294 296 298 298 297 291 286 284 284 283 284 285 283 279 281 285 289 289 287 288 287 286 285 287 287 290 292 293 295 295 294 292
283 282 285 287 288 291 293 293 294 293 292 294 296 299 301 301 291 285 283 284 285 285 285 285 282 282 285 287 288 286 284 284 285 287 289 290 291 291 293 293 295 295 294
282 282 284 285 286 289 292 292 294 294 292 293 296 297 298 296 293 295 287 284 285 286 290 291 290 287 286 285 286 287 288 286 285 286 287 287 289 289 291 292 293 293 294
280 280 282 284 285 286 290 291 291 290 288 291 294 297 299 295 291 293 289 286 286 286 287 289 291 289 286 285 284 284 286 287 286 285 287 288 289 290 291 291 291 292 293
277 277 279 282 284 285 287 289 289 287 286 288 290 292 294 294 291 291 290 288 287 285 285 288 288 288 287 286 286 283 283 286 286 286 287 288 289 289 290 290 291 293 293
277 277 279 281 283 284 284 286 286 285 285 287 288 288 290 290 289 291 291 290 288 286 285 285 287 286 286 285 284 284 283 284 286 288 287 288 289 289 290 290 291 292 294
275 277 280 280 281 282 283 283 282 283 284 285 285 285 285 287 290 291 291 290 290 288 287 286 286 284 283 283 284 284 285 286 287 288 287 288 289 290 291 291 291 292 293
275 276 278 278 279 280 281 280 281 281 282 282 282 282 284 286 287 289 290 290 290 290 290 288 286 284 282 283 283 285 286 285 285 286 287 288 289 289 289 290 292 293 294
274 274 276 276 277 279 279 279 279 279 280 280 281 282 283 284 285 287 288 289 289 288 289 289 287 287 286 285 285 285 286 285 285 286 287 288 288 289 289 290 291 292 292
276 275 275 274 275 276 277 276 277 280 280 281 282 282 282 282 285 286 287 287 288 287 286 287 288 289 289 288 288 286 286 287 286 287 288 288 287 287 288 289 290 291 292
274 273 275 275 275 274 275 276 276 278 279 281 281 282 280 283 286 287 287 286 285 284 284 286 286 287 288 289 289 289 289 288 287 288 288 288 288 288 287 288 289 291 291
271 272 273 273 272 273 275 276 276 278 279 280 282 284 282 284 286 287 288 287 286 286 286 286 286 287 288 288 288 289 290 289 288 288 288 288 287 287 287 287 288 289 290
Height
5872 5871 5871 5870 5869 5869 5868 5868 5867 5867 5866 5866 5866 5866 5866 5866 5866 5866 5866 5867 5867 5867 5868 5868 5868 5869 5869 5869 5870 5870 5871 5871 5871 5872 5872 5872 5873 5874 5874 5874 5874 5874 5874
5872 5871 5870 5869 5869 5868 5867 5867 5866 5866 5865 5865 5865 5865 5865 5865 5865 5865 5865 5866 5866 5866 5866 5867 5867 5868 5868 5869 5869 5869 5869 5869 5870 5870 5870 5871 5871 5871 5872 5872 5872 5872 5872
5871 5870 5870 5869 5868 5867 5866 5866 5865 5865 5865 5864 5864 5864 5864 5864 5864 5864 5864 5865 5865 5865 5865 5866 5866 5867 5867 5867 5868 5868 5868 5868 5868 5869 5869 5869 5869 5869 5869 5870 5870 5870 5870
5870 5869 5868 5868 5867 5867 5866 5865 5864 5864 5863 5863 5863 5863 5863 5863 5863 5863 5863 5863 5863 5863 5864 5864 5865 5865 5866 5866 5866 5866 5866 5867 5867 5867 5867 5867 5867 5867 5867 5867 5867 5867 5867
5869 5868 5867 5867 5866 5866 5865 5864 5864 5863 5863 5862 5862 5863 5862 5862 5862 5862 5862 5862 5862 5862 5863 5863 5863 5864 5864 5864 5864 5865 5865 5865 5866 5866 5866 5866 5866 5865 5865 5865 5865 5865 5864
5868 5867 5866 5866 5866 5865 5864 5864 5863 5863 5862 5862 5862 5862 5862 5862 5862 5861 5861 5861 5861 5861 5861 5861 5861 5862 5862 5862 5862 5863 5863 5863 5864 5864 5864 5864 5864 5863 5863 5863 5862 5862 5862
5867 5866 5865 5865 5865 5864 5863 5863 5862 5862 5861 5861 5861 5861 5860 5860 5860 5860 5860 5859 5859 5859 5859 5859 5860 5860 5860 5860 5860 5860 5861 5861 5862 5862 5862 5862 5861 5861 5860 5860 5860 5860 5859
5865 5865 5864 5864 5863 5863 5862 5862 5861 5861 5860 5860 5859 5859 5859 5859 5859 5858 5858 5858 5858 5857 5858 5858 5858 5858 5858 5859 5859 5859 5859 5860 5860 5860 5860 5859 5859 5859 5858 5858 5857 5856 5856
5863 5862 5862 5862 5862 5861 5861 5860 5859 5859 5859 5859 5858 5858 5857 5857 5857 5857 5856 5857 5856 5856 5856 5856 5856 5856 5856 5857 5857 5857 5857 5857 5857 5857 5857 5857 5856 5856 5855 5855 5854 5854 5853
5861 5860 5860 5860 5860 5859 5859 5858 5858 5858 5857 5857 5857 5856 5856 5855 5856 5855 5855 5855 5855 5855 5855 5855 5854 5854 5855 5855 5855 5855 5856 5856 5855 5855 5855 5854 5854 5853 5853 5852 5851 5851 5850
5858 5858 5858 5858 5857 5857 5857 5857 5856 5856 5856 5856 5855 5854 5854 5853 5853 5853 5853 5854 5854 5853 5853 5853 5853 5853 5853 5853 5853 5853 5853 5853 5853 5853 5852 5852 5851 5850 5850 5849 5849 5848 5848
5856 5856 5856 5855 5855 5855 5855 5855 5855 5855 5854 5854 5853 5852 5852 5851 5851 5851 5851 5851 5852 5851 5851 5851 5851 5851 5851 5851 5851 5851 5851 5851 5851 5850 5850 5849 5849 5848 5847 5847 5846 5845 5845
5853 5853 5853 5853 5853 5853 5853 5853 5853 5852 5852 5851 5851 5850 5849 5849 5849 5849 5849 5849 5849 5849 5849 5849 5849 5848 5849 5848 5848 5848 5848 5848 5848 5847 5847 5847 5846 5845 5845 5844 5843 5842 5841
5851 5851 5851 5851 5851 5851 5850 5850 5850 5849 5849 5849 5848 5848 5847 5847 5846 5846 5846 5847 5847 5847 5846 5847 5846 5846 5845 5845 5844 5845 5845 5845 5844 5844 5844 5843 5843 5842 5841 5841 5839 5838 5837
5848 5848 5848 5848 5848 5848 5848 5847 5847 5846 5846 5846 5845 5845 5844 5844 5843 5843 5843 5844 5844 5843 5844 5843 5843 5843 5842 5842 5842 5842 5842 5841 5841 5840 5840 5839 5839 5838 5837 5837 5836 5834 5833
5845 5845 5845 5845 5845 5845 5845 5844 5844 5843 5843 5843 5843 5842 5841 5840 5840 5840 5840 5840 5839 5840 5840 5840 5839 5839 5839 5838 5838 5838 5838 5838 5837 5836 5836 5835 5835 5834 5833 5832 5831 5829 5828
5841 5841 5841 5842 5842 5842 5842 5842 5841 5840 5840 5840 5839 5839 5838 5838 5837 5837 5836 5836 5836 5836 5835 5836 5835 5835 5834 5834 5834 5834 5833 5833 5833 5832 5831 5831 5830 5829 5828 5827 5826 5824 5823
5837 5838 5838 5838 5838 5838 5838 5838 5837 5837 5837 5837 5836 5835 5835 5834 5834 5833 5832 5832 5832 5831 5832 5831 5831 5830 5830 5830 5829 5829 5828 5828 5828 5827 5826 5825 5824 5823 5822 5821 5820 5818 5817
5833 5833 5834 5834 5834 5834 5834 5834 5833 5833 5833 5832 5832 5831 5831 5830 5830 5829 5829 5828 5828 5827 5827 5827 5826 5825 5825 5824 5824 5824 5823 5823 5822 5822 5821 5820 5819 5817 5816 5815 5813 5812 5810
5829 5829 5829 5830 5830 5830 5830 5830 5829 5829 5829 5828 5828 5827 5826 5826 5825 5825 5824 5823 5823 5822 5822 5821 5821 5820 5820 5819 5818 5818 5818 5817 5817 5816 5814 5813 5812 5811 5810 5808 5806 5805 5803
5824 5824 5824 5825 5825 5825 5825 5825 5825 5824 5824 5824 5823 5822 5822 5821 5821 5820 5819 5818 5817 5817 5816 5815 5815 5814 5814 5813 5813 5812 5811 5811 5810 5809 5808 5807 5805 5804 5803 5801 5799 5797 5795
5818 5818 5819 5819 5819 5819 5819 5819 5819 5819 5819 5818 5818 5818 5817 5817 5815 5814 5813 5812 5811 5810 5810 5809 5809 5808 5808 5807 5806 5805 5805 5804 5803 5803 5801 5800 5798 5797 5795 5793 5791 5789 5787
5811 5812 5812 5812 5813 5813 5813 5813 5813 5813 5813 5812 5812 5812 5811 5811 5810 5808 5807 5806 5805 5804 5804 5803 5802 5801 5801 5800 5799 5798 5797 5797 5796 5795 5793 5792 5791 5789 5787 5786 5784 5782 5779
5805 5805 5805 5806 5806 5806 5806 5807 5806 5806 5806 5806 5806 5805 5805 5804 5803 5802 5800 5800 5799 5798 5797 5796 5795 5794 5793 5792 5791 5790 5789 5788 5787 5786 5785 5784 5782 5781 5779 5777 5775 5773 5771
5798 5798 5798 5798 5799 5800 5800 5800 5800 5799 5799 5799 5799 5798 5798 5797 5796 5795 5793 5792 5791 5790 5789 5788 5788 5786 5785 5784 5783 5782 5781 5780 5779 5778 5776 5774 5773 5771 5770 5768 5765 5763 5761
5791 5791 5792 5791 5792 5793 5793 5793 5793 5793 5793 5793 5792 5791 5790 5790 5789 5787 5786 5785 5784 5783 5782 5781 5780 5778 5777 5776 5774 5773 5772 5771 5769 5768 5767 5765 5763 5762 5761 5759 5756 5754 5751